STARLINK-5347, 57137

Orbit data source: Space-Track

STARLINK-5347, 57137 is a payload satellite owned by SpaceX/Seattle (US) in LEO that was launched on Fri, 23 Jun 2023 UTC via an FALCON 9 launch vehicle from the Air Force Eastern Test Range (AFETR). Payload-class satellites include a variety of spacecraft equipped with specific instruments for various scientific and technological missions. These include communications satellites like Starlink; space stations such as the ISS; scientific satellites like the Hubble; Earth observation satellites from companies like Planet Labs, Umbra, and HawkEye 360; GPS; miniature CubeSats for education and research; and military/defense satellites.

Loading next visibility...
Identifier
57137, 2023-090AN
Orbit
LEO
Last TLE update
1 day ago
Origin
Manufacturer
SpaceX/Seattle
Mission
Operational Commercial Communications
Bus & Motor
STARLINK, Unknown motor
Mass
305 kg wet, ~290 kg dry
Launch date (UTC)
2023-06-23 (2 years ago)
Launch vehicle
FALCON 9
Launch site
Air Force Eastern Test Range (AFETR)
Object type
Payload
Rocket body
Debris
Shape & HBR
Box + 1 Pan, 9 m
Radar Cross Section
11.087 m², Large (>1 m²)

Expand to show TLE details & history

TLE from 1 day ago
0 STARLINK-5347
1 57137U 23090AN  25187.01302331  .00000586  00000-0  58450-4 0  9998
2 57137  43.0030 162.2697 0001228 280.9230  79.1474 15.02524342113268
Epoch: 2025-07-06T00:18Z
TLE epoch observation values (Epoch: 2025-07-06T00:18:45.213Z)
Latitude
-0.00005°
Longitude
-126.66156°
Altitude
558.733 km
Speed
7.584 km/s
True Right ascension
10h 49m 04s
True Declination
0° 00' 00"
Sunlit
Object was in daylight at epoch
Visualization orbit readout
Latitude
-35.37361°
Longitude
176.5979°
Altitude
568.444 km
Speed
7.578 km/s
Apparent Right ascension
08h 13m 03s
Apparent Declination
-38° 57' 09"
Sunlit
Object is in daylight
Visualization observer readout
Local Sidereal Time
21:35:39
Azimuth
93.18° ESE
Elevation
-74.059°
Doppler factor
1
Orbital elements
Apogee altitude
561.891 km
Perigee altitude
560.187 km
Semi-major axis
6,939.176 km
Eccentricity
0.00012
Inclination
43.003°
RAAN
162.2697°
Arg. of periapsis
280.923°
True anomaly
Unknown
Mean anomaly
79.1474°
Eccentric anomaly
Unknown
Mean motion
3.75475 °/min
Orbital period
95.88 mins
BSTAR
0.00005845
Loading maneuver chart data...
Loading SW <> Apogee altitude chart data...
Loading historical data...
Loading historical data...
Loading historical data...
Loading historical data...
Loading historical data...
Loading historical data...
Loading historical data...

STARLINK-5347 Visibility forecast

Observer location: undefined°, undefined°

Span
Click to sort rows by Start time (UTC) header in descending order
Start Az.
Max El. time (UTC)
Max El. Az.
Max El.
End time (UTC)
End Az.
5 mins2025-07-08 00:21:41.691Z188.115° SSW2025-07-08 00:24:41.691Z133.334° SE20.486°2025-07-08 00:26:41.691Z100.254° ESE
7 mins2025-07-08 02:01:41.691Z246.409° WSW2025-07-08 02:04:41.691Z108.145° ESE44.506°2025-07-08 02:08:41.691Z72.56° E
6 mins2025-07-08 03:42:41.691Z285.308° WNW2025-07-08 03:45:41.691Z19.001° NNE38.817°2025-07-08 03:48:41.691Z73.962° E
6 mins2025-07-08 05:23:41.691Z290.752° WNW2025-07-08 05:26:41.691Z76.554° E43.147°2025-07-08 05:29:41.691Z102.715° ESE
5 mins2025-07-08 07:04:41.691Z259.296° W2025-07-08 07:06:41.691Z213.787° SW27.577°2025-07-08 07:09:41.691Z155.342° SSE
|